Wind_Speed
20 19 17 16 16 16 16 17 18 19 20 21 23 25 26 28 30 32 34 35 36 37 37 38 39 40 41 43 44 46 48 50 53 54 56 57 57 58 58 59 60 60 59 59 59 59 60 61 63 63 63 63 63 62 62 61 61 61 61 62 63 62 61 57 55 54 53 50 47 47 47 48 48 45 46 44 40 44 48 46 41 40 38 37 34 30 23 21
22 21 20 19 18 18 18 19 19 20 21 22 23 25 26 28 30 31 33 35 36 37 38 38 38 39 40 42 43 45 46 48 50 52 54 56 58 59 59 59 60 61 61 61 60 60 60 60 61 63 64 64 64 64 64 64 64 64 64 65 64 62 61 58 56 55 53 52 50 50 50 50 52 51 50 48 44 46 53 51 45 43 42 41 39 35 29 26
23 23 22 21 21 21 21 21 22 23 23 24 25 26 28 29 30 32 33 34 35 37 38 39 40 40 40 41 42 44 45 47 49 50 52 53 56 59 60 60 60 61 61 62 62 61 61 61 61 62 64 65 65 66 65 65 66 66 66 67 65 62 61 59 58 57 55 54 52 52 53 53 55 56 56 55 51 50 56 55 49 45 43 41 41 38 35 32
26 25 24 23 23 23 23 23 24 25 26 27 27 28 29 30 31 33 34 35 35 36 37 38 39 40 41 42 42 43 44 46 48 50 51 52 53 55 57 60 61 62 62 62 62 63 63 63 62 61 62 64 65 67 67 67 68 68 69 67 63 63 63 61 59 59 57 56 55 54 56 56 55 57 59 60 59 58 59 58 50 44 42 40 41 39 37 34
29 27 26 26 25 25 24 24 24 25 26 28 29 30 31 31 32 33 34 35 35 36 36 37 38 39 41 42 43 43 44 45 47 48 50 50 51 52 54 56 59 61 62 63 63 63 64 64 64 63 63 63 64 66 67 68 69 70 69 65 63 65 66 64 61 59 59 59 58 57 57 57 57 58 58 60 63 61 60 60 50 43 42 42 41 39 36 35
31 30 29 29 28 28 28 27 27 27 27 29 30 32 34 35 35 35 34 33 34 35 35 36 36 37 38 39 41 43 44 45 47 47 47 48 50 51 52 54 56 58 60 63 64 64 65 65 65 65 65 64 64 65 65 67 70 70 68 65 65 67 67 65 63 61 59 59 59 58 56 56 58 59 58 60 63 61 59 60 52 45 44 45 42 38 36 38
33 33 32 32 31 32 31 31 30 30 30 30 32 33 35 37 37 38 36 33 32 32 33 34 35 36 37 38 38 39 42 44 47 46 45 47 49 50 51 53 54 56 58 60 62 64 66 66 66 66 66 66 65 65 65 66 68 68 67 66 68 69 68 67 66 64 61 60 59 57 54 53 56 58 57 59 60 57 58 62 57 50 48 47 47 41 36 37
35 34 34 34 34 34 34 34 33 32 32 32 33 34 36 37 38 39 39 37 35 32 31 31 32 33 35 37 37 38 39 41 44 45 44 45 47 48 50 52 53 55 57 58 60 62 65 67 68 68 67 67 68 67 66 66 66 67 66 67 69 70 70 68 68 66 64 62 60 57 55 53 53 55 57 57 56 53 53 60 62 57 53 50 51 50 38 34
36 36 35 35 35 36 36 35 35 34 34 34 34 36 37 38 39 39 39 39 37 36 33 31 30 31 33 35 36 37 38 38 40 41 42 44 45 47 49 50 52 53 55 57 59 61 63 65 67 68 69 69 69 68 68 67 66 66 66 68 70 70 69 69 69 67 66 64 61 59 57 54 52 53 57 57 56 52 46 51 60 62 60 55 53 55 45 34
36 37 36 36 37 37 37 37 36 35 35 35 35 37 38 39 39 39 38 38 37 36 36 34 32 31 31 32 34 35 36 37 38 39 40 41 43 45 47 49 51 52 54 56 57 59 61 63 64 66 69 70 70 69 69 68 67 67 68 69 68 68 69 69 69 68 66 65 63 61 59 55 52 54 58 57 55 52 45 43 51 58 60 59 55 54 50 40
37 37 37 37 38 38 38 38 37 36 36 36 36 37 38 39 39 38 38 38 37 36 35 34 32 30 30 30 31 31 32 34 36 38 40 40 40 41 43 45 46 50 53 55 56 58 59 61 62 64 66 68 70 70 70 70 69 69 70 70 68 67 69 70 69 68 67 66 64 62 60 56 54 56 57 56 54 52 49 44 45 51 55 59 57 52 52 47
38 38 38 39 39 39 39 39 38 37 37 36 36 37 38 38 38 38 37 37 36 35 34 32 31 30 31 31 31 31 31 32 33 35 37 39 39 39 39 39 40 43 47 52 55 56 57 58 60 62 63 66 67 69 70 71 71 71 71 71 69 69 69 69 68 68 68 66 64 62 61 59 59 59 56 55 55 52 52 49 45 46 47 54 57 53 52 49
39 39 40 40 40 40 40 40 39 38 37 37 36 36 37 37 37 36 36 35 34 32 31 30 29 30 31 32 33 34 34 34 35 35 36 36 37 38 39 39 38 38 41 46 51 53 54 56 57 59 61 63 64 66 69 70 72 72 72 72 71 71 70 68 67 68 68 66 64 63 64 63 62 59 56 55 54 54 55 52 47 44 42 47 56 58 54 49
40 41 41 41 41 40 41 40 39 38 37 37 36 35 36 36 35 35 34 32 30 28 27 25 27 29 31 32 33 35 36 36 37 37 37 37 38 38 39 40 39 39 39 42 47 51 51 52 53 55 57 59 61 63 65 67 70 71 73 73 73 73 71 68 67 67 67 66 65 65 66 66 62 58 56 54 53 55 56 54 50 46 41 42 49 57 57 52
41 42 42 42 42 41 41 41 40 38 38 37 36 35 35 35 34 33 31 29 26 25 23 23 27 30 33 34 35 36 37 39 40 40 39 39 39 40 40 39 39 40 40 40 43 48 49 49 49 50 52 55 57 59 62 64 67 69 72 74 74 74 72 69 69 68 67 66 65 67 68 66 62 59 57 54 53 55 56 55 53 49 44 40 40 47 52 51
42 43 43 43 43 42 41 41 40 39 38 37 36 34 34 33 32 30 28 26 24 23 23 26 29 32 34 35 36 37 39 41 42 41 40 37 37 40 41 40 39 39 40 41 42 45 47 48 48 48 49 51 53 55 58 61 64 67 70 72 74 75 73 71 71 69 68 68 67 69 69 66 62 60 58 55 54 56 56 56 55 52 48 42 39 40 43 46
42 43 44 44 43 42 42 41 39 38 37 36 35 34 33 32 30 28 26 24 23 24 26 29 30 31 33 34 35 37 39 40 40 38 34 31 31 34 38 41 41 40 40 40 41 44 46 47 48 48 48 48 50 51 54 58 61 64 67 70 72 74 75 74 73 71 70 69 69 69 69 66 63 62 60 57 55 56 57 56 54 53 51 47 42 40 41 41
43 44 45 44 44 43 42 40 39 38 37 36 34 33 31 30 28 27 25 24 25 27 29 30 29 30 32 34 35 37 38 38 35 31 26 24 23 25 30 37 41 42 41 40 40 42 45 47 48 48 48 48 49 50 52 54 57 60 63 66 69 70 73 74 73 71 70 70 70 70 70 67 65 64 63 59 57 56 56 55 54 53 53 50 47 44 42 39
43 44 45 45 44 44 42 40 39 37 37 36 34 32 30 28 27 27 26 26 27 28 30 29 28 29 31 33 34 35 35 34 32 28 24 22 22 22 24 29 35 40 42 42 42 42 44 46 48 48 47 47 48 49 49 50 53 55 57 61 65 66 69 71 72 71 70 71 71 71 70 68 66 66 65 62 59 58 57 55 53 52 52 52 50 47 43 40
44 45 46 45 45 44 43 41 39 37 36 35 34 32 30 27 26 25 25 25 26 27 29 28 27 29 31 32 32 31 31 31 30 28 25 24 24 23 23 24 28 35 40 43 45 44 44 45 47 46 46 47 49 50 50 50 51 51 52 56 61 63 65 67 68 69 69 71 72 72 71 69 68 67 65 64 61 60 58 56 54 53 52 52 51 49 44 40
44 45 46 46 45 45 43 41 39 36 35 34 33 30 28 26 25 25 26 25 25 26 27 26 27 29 30 30 29 28 28 28 28 27 24 24 24 23 22 21 23 28 35 40 44 46 46 45 43 43 46 49 52 52 52 52 52 51 52 54 58 61 63 63 64 65 66 69 72 73 73 72 71 69 67 65 64 62 60 57 56 55 52 51 51 48 44 39
45 46 46 46 46 45 43 42 39 37 35 34 33 30 28 25 24 25 25 25 25 25 27 26 27 29 29 28 27 26 25 26 26 26 24 22 22 21 20 20 21 24 28 35 40 43 45 44 42 43 45 47 50 52 54 54 54 53 52 53 56 58 59 60 61 61 62 66 69 71 74 74 73 72 69 67 66 63 60 58 56 55 53 51 50 47 42 38
45 46 46 46 46 45 44 42 39 37 36 34 33 31 28 26 24 23 24 24 25 25 26 27 27 28 28 27 25 25 25 25 25 24 22 22 20 19 19 19 19 21 24 28 34 39 41 41 43 45 45 44 46 50 53 56 56 55 53 53 53 53 54 57 57 58 59 63 68 70 74 77 75 73 71 68 67 64 61 60 57 55 54 51 50 48 43 39
45 46 46 46 46 45 44 42 39 37 36 35 33 31 29 26 24 23 24 24 25 26 27 28 28 28 28 26 24 24 25 25 24 23 22 21 19 18 19 19 18 18 21 24 28 33 34 37 41 43 44 44 44 46 51 55 56 56 55 54 52 51 52 54 53 55 57 59 65 69 73 78 76 74 73 70 67 66 63 61 60 58 56 53 51 49 46 43
45 46 46 47 46 45 44 42 39 38 37 35 34 31 29 27 25 24 24 24 25 26 27 29 29 29 29 26 24 25 24 24 25 23 22 21 19 18 19 19 19 19 20 22 25 27 29 31 36 39 42 44 45 45 47 51 54 56 56 54 52 51 52 52 50 51 53 53 59 65 71 77 76 74 73 71 69 68 65 63 62 60 58 56 54 52 49 46
45 46 46 46 46 45 43 42 40 39 38 36 34 32 29 28 26 23 23 24 25 26 27 29 29 29 29 26 23 25 24 24 25 25 23 22 20 19 18 18 19 20 21 22 23 24 25 26 29 34 38 41 44 44 44 47 51 54 54 53 53 53 54 53 51 51 51 50 53 59 67 74 74 72 72 71 70 69 66 64 62 61 60 58 56 54 51 49
45 45 46 46 46 45 43 41 40 39 38 37 35 33 30 28 26 23 23 23 24 26 27 29 29 29 29 27 24 24 24 23 24 25 24 23 23 22 20 19 19 20 22 24 24 23 25 27 28 30 34 37 39 41 41 44 48 51 51 52 54 55 55 55 53 53 51 48 50 54 62 71 74 72 72 72 71 71 69 66 64 61 60 60 58 56 53 51
45 45 45 46 45 44 43 42 41 40 38 36 35 33 30 28 26 24 23 23 24 25 27 29 30 29 29 27 25 24 24 22 21 23 25 23 23 23 21 21 21 21 23 27 26 24 27 30 30 30 31 32 33 36 40 43 46 47 48 52 55 56 57 57 56 55 52 50 51 51 57 68 73 72 71 71 73 73 71 69 65 62 60 59 59 58 55 52
45 45 45 45 44 43 42 42 41 40 38 36 35 33 31 28 26 24 23 22 23 25 27 29 30 30 28 26 25 25 25 23 20 21 23 23 23 23 21 20 21 22 23 27 27 26 29 31 32 33 31 30 31 35 38 40 42 44 47 51 53 55 57 57 58 57 54 55 55 50 52 63 72 73 69 69 73 74 72 69 67 63 60 58 59 59 56 54
45 45 45 45 44 43 42 42 42 40 39 37 35 34 32 29 27 25 23 22 23 24 26 28 30 32 28 24 23 25 25 23 20 20 20 21 23 22 21 20 20 21 21 24 26 26 29 32 34 34 33 32 32 34 36 36 37 41 46 49 51 54 56 58 59 58 58 60 58 51 50 58 69 73 70 69 72 72 71 70 68 64 61 58 59 59 58 55
44 45 45 44 43 42 41 41 42 41 39 38 36 34 33 30 27 25 24 22 23 23 25 27 29 32 32 28 25 25 25 23 20 20 19 21 23 22 22 21 20 21 19 19 22 23 27 30 33 35 35 35 35 35 35 34 34 38 43 46 49 52 54 57 60 59 61 62 58 53 50 54 66 73 69 68 70 71 71 70 69 66 63 60 59 59 59 57
44 44 45 44 42 41 40 40 41 41 40 39 37 35 33 30 27 25 24 23 23 23 24 26 27 29 32 32 27 24 25 24 21 20 19 21 23 22 23 24 22 20 19 19 18 20 25 27 28 32 35 36 37 36 35 34 34 36 39 42 46 50 52 56 59 60 62 62 57 54 52 55 64 69 67 65 68 70 70 70 69 68 66 62 60 59 59 59
44 44 45 44 42 41 40 40 41 41 41 39 38 36 34 31 26 25 25 24 23 23 24 25 26 27 29 30 29 25 25 24 22 21 19 20 22 22 24 26 24 22 20 19 18 15 18 23 27 30 32 34 37 37 35 34 34 35 36 38 41 46 50 55 57 59 61 61 57 53 54 58 61 64 65 63 65 67 68 69 69 69 68 64 62 61 60 60
44 44 45 44 42 41 39 40 40 41 42 40 39 37 35 31 27 24 25 25 24 24 24 25 25 26 28 30 30 28 26 24 22 21 20 20 22 23 25 27 25 24 22 19 16 15 11 16 25 29 29 31 34 34 34 34 36 37 37 36 38 41 45 49 53 56 58 59 56 53 55 60 60 61 62 59 60 64 66 68 69 69 69 67 64 63 62 61
44 44 44 43 42 41 40 40 40 41 41 41 39 38 35 33 29 25 24 25 24 23 23 24 24 25 26 29 31 30 28 25 24 23 22 22 23 25 25 26 27 26 24 20 17 15 10 11 20 25 26 28 31 33 35 37 37 36 37 38 39 39 39 43 47 50 53 55 56 55 56 59 58 57 58 57 57 60 63 66 67 69 69 67 66 64 62 61
43 43 43 43 42 41 41 41 41 41 41 40 39 38 36 35 31 26 24 24 25 24 23 23 24 24 25 28 31 32 29 26 25 25 24 23 23 25 25 27 29 27 24 22 18 15 12 11 18 22 23 25 29 33 36 37 35 33 35 38 38 37 36 40 44 47 50 53 55 55 55 55 55 56 56 56 55 56 60 63 65 67 68 67 67 65 62 60
43 43 42 42 42 41 41 41 42 42 41 40 38 38 38 36 32 28 24 23 24 25 25 24 23 24 25 27 30 31 30 28 25 25 26 24 24 24 24 25 28 27 23 21 19 17 15 13 16 21 23 25 27 33 37 37 35 32 33 33 33 35 38 39 42 44 45 48 52 53 54 53 54 56 55 54 54 54 58 62 64 66 68 68 67 65 62 59
42 42 42 41 41 41 41 42 42 43 42 40 38 38 39 37 34 30 25 24 23 24 26 26 24 24 26 28 28 28 29 28 25 27 29 27 26 26 23 23 26 25 21 20 19 18 17 15 17 20 23 24 25 31 36 37 36 33 30 31 33 36 38 38 39 40 40 43 48 51 52 53 54 55 53 53 54 52 53 58 62 64 65 66 66 64 62 60
42 42 41 40 39 39 40 41 42 43 43 41 39 38 39 38 35 31 27 24 23 23 25 26 26 25 26 29 28 25 26 27 25 28 31 28 28 30 24 21 26 26 21 20 20 20 18 16 18 20 20 22 22 26 31 34 34 33 32 33 34 35 35 36 36 37 37 40 45 47 50 52 52 52 52 51 51 48 47 52 57 61 63 64 64 63 62 60
42 42 41 39 37 36 38 40 42 43 43 42 40 39 40 39 36 33 30 26 24 23 24 25 26 27 26 27 28 24 24 25 24 27 32 28 27 29 25 21 25 27 22 19 20 22 20 16 18 21 18 17 18 20 25 29 31 33 33 32 32 32 34 35 36 36 35 36 40 44 48 50 48 47 49 48 46 43 43 47 51 55 58 59 60 61 61 61
42 42 40 38 36 35 36 38 41 43 43 43 41 39 40 40 37 34 31 28 25 23 24 24 25 27 27 27 27 25 24 24 25 28 31 27 25 28 24 19 24 27 23 19 20 24 23 17 17 20 16 12 14 16 21 27 30 30 30 29 30 31 33 35 36 35 35 35 36 40 45 46 43 43 44 43 42 39 40 44 48 52 55 58 59 59 61 61
40 41 40 38 37 35 34 36 39 41 43 43 42 41 40 40 38 34 32 29 25 23 23 24 24 25 27 27 26 27 27 26 26 28 30 27 26 27 24 19 21 26 24 20 19 23 22 18 18 18 13 8 10 13 18 25 29 29 28 29 31 31 32 34 33 32 34 35 34 35 40 41 37 38 40 40 40 39 40 45 49 51 54 57 59 59 60 61
39 40 40 39 38 36 35 35 37 39 41 43 43 42 41 41 39 35 33 29 25 23 22 23 23 24 26 26 26 27 28 27 25 25 28 28 25 25 24 20 21 24 24 21 18 19 20 20 20 18 13 7 6 10 15 21 27 27 26 28 30 29 29 30 30 31 33 35 33 32 35 33 30 33 36 37 38 39 42 46 48 49 52 55 57 58 58 60
38 39 39 38 38 37 36 35 36 37 40 41 43 43 42 42 41 37 33 30 26 24 22 22 23 23 24 25 26 27 27 27 25 23 26 25 23 23 22 17 18 19 20 20 17 15 16 17 19 18 14 9 5 8 11 15 20 22 22 25 27 27 28 30 29 29 31 33 33 33 31 27 26 30 32 34 36 38 42 46 46 47 51 53 55 57 58 59
38 38 38 38 38 38 36 35 35 36 38 40 41 42 42 42 42 39 35 30 26 25 23 22 22 23 23 24 24 25 25 26 25 24 25 23 22 24 20 15 15 14 16 20 18 14 13 12 13 13 13 10 3 5 8 10 15 20 24 26 26 26 28 30 29 27 27 28 31 32 29 25 27 30 31 32 35 37 42 47 48 48 50 51 52 54 55 57
37 37 37 38 38 38 37 36 36 36 38 39 40 41 42 42 42 40 38 32 26 24 24 23 23 22 22 21 20 21 22 23 24 23 23 24 23 23 21 17 15 13 15 20 19 16 15 12 10 8 9 8 3 6 8 9 12 17 22 21 21 24 27 29 29 26 23 24 26 28 29 30 32 34 34 33 34 36 42 49 51 50 48 48 49 49 51 54
36 36 37 38 38 38 38 37 37 37 38 39 39 40 41 41 40 39 38 35 28 24 23 24 24 23 23 22 20 20 20 21 23 23 21 21 22 22 20 18 15 13 14 18 20 18 15 15 12 6 4 7 4 6 7 6 5 10 18 16 14 21 27 27 27 25 22 23 26 27 31 32 32 34 37 35 34 39 44 49 51 48 45 43 43 43 46 49
36 36 37 37 37 38 38 38 37 37 38 39 39 40 41 42 41 38 37 35 31 25 22 22 24 23 23 24 24 23 21 19 20 23 22 20 21 22 21 17 15 14 15 17 20 18 12 12 13 8 4 5 3 6 7 6 3 5 14 15 11 17 25 24 24 25 25 27 27 25 28 29 26 28 34 37 38 39 42 48 50 45 41 40 38 38 40 43
37 36 36 36 37 37 38 38 37 37 38 39 39 40 41 42 41 39 37 34 31 27 22 20 22 23 23 24 24 24 24 21 19 21 23 21 21 22 21 17 14 13 15 17 19 19 12 8 11 11 8 6 2 5 7 9 7 5 8 12 11 14 19 21 22 25 28 29 25 22 25 25 21 24 31 37 41 40 41 48 50 43 39 38 37 36 37 39
38 37 36 35 36 37 37 38 37 36 38 39 39 40 41 41 41 40 38 35 31 28 23 18 19 21 22 23 24 24 23 24 23 21 21 20 20 21 22 19 15 13 14 14 17 20 17 10 8 9 10 10 5 3 8 10 10 8 8 12 15 16 19 22 23 25 26 25 23 22 23 21 19 23 30 35 40 43 44 48 48 43 40 39 38 37 36 36
38 37 37 34 34 36 37 37 37 36 37 38 39 40 41 41 40 39 38 37 33 29 25 19 17 19 21 22 24 24 22 23 24 21 18 19 19 20 21 20 17 14 11 9 11 18 20 17 13 10 11 15 13 3 9 13 13 12 12 14 18 20 22 23 23 24 23 22 21 22 23 22 19 21 29 34 38 42 44 47 48 44 41 40 39 38 39 38
38 38 38 36 33 34 36 36 35 35 36 38 39 39 41 42 40 38 38 37 35 32 28 23 19 19 21 21 22 23 22 22 22 19 17 19 19 18 19 19 18 15 12 9 9 13 18 21 18 15 14 16 17 9 3 10 12 12 14 17 17 18 21 23 24 24 22 22 23 22 24 24 16 16 27 35 37 40 43 47 48 44 41 41 39 39 41 42
Wind_Direction
7 2 356 349 342 334 326 320 313 307 302 297 293 289 285 282 278 275 273 271 270 268 267 265 263 261 260 258 257 255 254 253 251 250 248 248 247 245 244 243 242 241 240 240 240 239 239 239 239 238 237 236 237 237 237 237 238 239 239 238 236 236 235 234 232 231 232 229 224 224 225 222 220 222 230 236 238 239 240 238 231 228 233 240 246 248 236 221
5 360 354 349 342 336 329 322 315 309 304 298 294 290 287 284 281 278 275 273 271 269 268 266 265 263 262 260 259 258 256 254 252 251 249 248 247 246 245 243 242 241 240 240 240 239 239 238 238 238 237 236 236 236 236 237 237 237 238 238 236 236 238 237 235 233 232 232 228 227 228 226 224 221 225 231 234 237 241 240 235 232 235 239 244 246 238 227
3 358 352 347 341 337 331 326 320 314 308 303 298 294 290 286 284 281 279 276 273 271 269 268 267 265 263 261 260 259 258 257 255 253 250 248 247 247 246 245 244 242 241 240 239 239 239 239 237 237 237 237 236 235 235 236 237 237 238 238 235 235 239 238 236 234 233 233 230 229 231 229 227 224 224 228 230 232 238 240 238 237 236 238 242 242 237 232
1 357 352 346 341 336 332 327 321 316 312 307 303 298 294 290 287 284 282 281 279 276 274 272 271 269 268 265 263 260 258 258 257 255 253 251 249 248 247 246 245 244 243 241 240 239 239 239 239 237 237 237 236 235 235 235 236 237 238 237 236 237 239 238 237 236 235 235 233 230 232 233 231 229 227 228 230 231 236 238 236 236 235 235 239 236 232 235
360 356 352 347 343 338 333 328 322 317 312 308 305 302 299 295 292 288 285 283 283 282 280 277 274 272 270 269 268 266 262 259 257 257 256 254 252 250 248 246 245 244 244 243 241 240 239 239 239 238 237 237 236 236 235 235 236 237 238 238 238 238 239 239 238 238 237 237 236 233 233 236 237 235 232 231 233 233 235 237 231 230 232 230 236 237 231 232
358 355 351 348 344 341 337 332 327 321 315 310 306 304 302 300 299 296 292 288 286 284 283 282 280 277 274 271 269 268 267 264 260 258 257 256 254 252 250 247 246 244 243 243 242 241 240 239 238 238 238 237 237 236 236 235 235 237 238 238 238 239 239 239 239 238 238 238 237 236 235 237 240 238 234 234 237 235 235 238 230 224 229 229 232 239 235 231
356 354 351 348 345 342 339 334 330 324 318 312 308 304 302 301 301 299 298 297 293 290 288 287 285 283 280 276 272 268 266 266 264 261 259 258 256 254 252 250 247 245 243 242 242 241 240 240 238 238 237 237 237 236 236 235 235 236 237 238 238 239 239 239 239 238 238 238 238 238 236 236 239 236 233 234 239 238 236 238 233 223 226 229 229 234 237 237
355 353 350 348 345 342 338 334 330 325 319 314 309 305 303 301 301 300 300 301 301 300 296 291 287 284 282 279 276 273 269 267 266 264 262 260 258 256 253 251 249 246 244 242 241 240 239 239 239 238 238 237 236 236 236 235 235 236 236 236 237 238 239 239 239 238 238 238 239 239 236 234 235 234 232 233 238 239 239 240 236 229 226 228 231 232 234 237
353 352 350 347 345 342 338 334 330 326 321 315 311 307 305 304 303 303 303 304 304 304 303 299 294 289 285 282 279 278 275 272 270 267 263 261 259 256 253 251 250 248 245 243 241 240 239 238 238 238 238 237 237 236 236 236 235 236 236 236 236 237 238 239 239 239 239 238 239 240 237 233 231 233 230 230 235 238 240 241 237 235 232 228 230 233 232 232
352 351 349 347 344 341 338 334 331 327 322 317 313 310 308 306 306 306 307 307 306 306 305 304 303 299 293 289 285 282 280 279 276 272 268 263 260 258 255 252 250 248 246 244 242 240 239 238 237 237 237 237 237 237 236 236 236 236 236 236 235 236 238 239 239 239 239 239 239 240 240 236 231 231 228 227 235 237 235 237 239 240 238 232 230 232 231 229
351 350 348 346 344 341 338 335 331 327 323 318 315 311 309 308 308 308 308 308 309 309 309 309 309 308 304 299 294 290 285 282 278 275 272 269 266 263 260 257 253 250 247 245 242 240 239 238 237 236 236 236 236 237 237 236 236 235 236 237 236 236 237 238 238 239 239 239 239 240 240 239 234 231 228 227 235 238 233 233 241 246 243 236 231 231 230 229
350 348 347 346 343 341 338 335 332 329 324 320 316 314 311 310 310 310 310 311 311 312 313 315 317 317 315 311 306 301 294 287 281 276 273 271 269 265 262 261 258 254 250 247 244 242 240 238 237 236 236 235 236 236 236 236 236 235 236 237 236 236 236 236 237 238 239 239 239 240 240 239 236 231 228 229 233 238 236 232 238 246 247 239 232 230 228 229
349 347 346 345 343 341 339 336 333 330 326 322 319 316 314 313 312 312 312 312 314 316 318 321 324 324 320 316 313 307 301 294 287 280 274 271 269 265 260 257 256 255 251 248 246 243 241 239 238 237 236 235 235 235 235 236 236 236 236 236 236 236 235 235 236 237 238 238 238 239 240 239 236 232 230 231 233 237 237 232 232 239 246 242 234 233 231 231
348 347 346 345 343 342 339 337 335 331 327 324 321 319 317 315 315 314 314 315 317 319 320 324 328 328 324 320 316 311 306 300 293 286 278 271 267 264 261 256 254 253 250 248 246 244 242 241 239 238 236 235 234 234 234 234 235 235 236 236 236 237 236 235 236 237 237 238 238 238 239 238 236 234 233 232 233 237 238 234 231 233 240 242 237 236 236 234
348 346 346 345 344 342 340 338 336 333 329 326 324 322 319 318 317 315 315 317 317 316 319 325 328 330 328 326 322 317 311 304 297 292 283 273 265 262 260 257 254 251 249 246 245 244 242 241 240 239 237 235 234 233 233 233 234 234 235 235 236 237 236 236 236 236 236 237 237 237 238 238 235 233 234 233 233 236 239 236 234 234 236 238 238 237 237 234
348 346 345 345 344 343 341 339 337 334 331 328 326 324 322 320 318 316 315 314 312 312 317 320 324 328 329 328 326 322 316 308 301 294 288 280 268 259 255 254 252 250 248 245 243 243 242 240 240 239 238 236 235 233 232 232 233 233 234 234 235 237 236 236 236 235 236 235 235 236 237 237 236 234 234 233 232 234 238 238 236 237 237 235 237 239 237 233
348 346 346 345 344 344 342 340 338 335 333 330 328 326 324 321 318 315 312 308 309 314 317 318 321 326 329 330 327 325 321 314 306 300 295 287 275 261 253 250 249 247 246 244 243 241 240 239 238 237 237 237 235 234 233 232 232 232 233 233 234 235 235 235 235 234 235 235 234 235 236 235 235 235 234 233 232 232 235 239 238 238 239 236 236 239 239 236
348 346 346 345 345 344 343 341 339 337 334 332 329 327 325 321 317 314 311 310 314 318 321 319 320 325 330 331 329 328 326 321 316 310 303 297 288 274 259 249 246 245 244 242 241 240 239 238 236 235 235 236 236 236 235 233 232 232 232 232 232 233 234 234 234 234 234 235 235 235 235 234 233 234 234 232 231 232 232 236 239 239 240 238 237 238 239 237
348 347 346 345 345 345 344 343 340 338 336 333 330 327 325 322 318 317 314 313 315 318 321 320 321 328 332 331 329 331 331 328 326 319 307 301 298 291 277 259 247 244 243 241 240 239 238 237 235 234 234 235 237 237 236 234 231 231 231 231 232 232 233 234 234 233 233 234 235 235 234 234 233 234 234 231 230 230 230 232 237 239 239 240 239 238 238 237
348 347 346 345 346 345 345 343 342 340 338 334 331 329 327 323 319 318 316 314 315 319 322 322 325 332 333 330 329 334 338 337 332 324 312 303 300 297 290 276 258 247 243 241 240 239 237 237 236 235 234 233 234 234 234 233 231 230 230 230 231 230 231 232 233 232 232 233 234 235 234 234 234 233 233 233 230 229 229 229 232 235 237 239 240 240 238 239
348 347 346 346 346 346 345 344 343 341 340 337 333 330 326 321 318 319 319 320 322 323 325 326 331 334 333 330 328 334 343 345 338 330 321 309 302 299 293 285 272 257 247 242 241 240 238 237 236 235 234 232 232 231 232 232 231 230 229 229 230 230 229 230 232 232 231 232 233 234 234 233 234 233 231 232 231 228 227 227 229 231 234 237 239 240 237 240
348 347 346 346 347 347 346 345 344 343 341 339 334 331 327 322 320 321 323 326 327 328 331 333 335 336 335 331 328 332 343 349 345 338 330 317 305 301 299 292 281 268 257 247 244 242 239 237 236 235 235 234 233 232 231 232 232 230 230 229 229 229 229 229 230 231 231 231 231 232 234 233 233 234 231 231 231 229 226 226 228 229 232 234 237 238 234 238
348 348 347 347 347 347 347 346 345 344 343 341 336 331 329 326 322 322 324 328 331 332 335 339 339 338 337 334 329 330 337 346 349 346 338 326 315 305 301 299 290 279 269 258 250 245 240 236 234 234 235 235 234 233 232 232 231 231 230 230 229 229 229 229 229 230 230 230 229 230 232 233 232 233 232 230 230 229 226 224 225 227 230 232 235 236 231 230
349 348 348 348 348 348 347 347 346 346 345 343 338 332 329 328 324 322 323 327 332 333 337 341 340 339 339 337 331 327 330 338 346 350 346 336 327 312 301 301 300 288 277 268 260 250 243 239 236 234 235 235 235 235 234 233 232 231 231 231 230 230 231 230 228 230 231 230 229 229 231 232 232 232 232 230 229 229 227 224 222 223 226 228 231 233 228 223
349 348 348 348 349 348 348 348 347 347 345 344 341 334 330 329 327 323 321 326 332 333 337 339 340 339 340 341 334 327 327 332 336 343 347 344 337 322 308 301 298 291 278 271 266 256 247 245 243 238 236 235 235 235 236 235 234 232 231 231 231 231 232 232 229 230 231 230 228 228 230 231 231 231 232 231 229 229 228 226 222 220 222 225 227 229 225 220
349 349 349 349 349 349 349 348 348 347 346 345 343 337 331 330 331 327 323 327 332 334 336 338 339 339 340 343 338 330 328 329 328 330 336 340 340 334 324 309 295 287 277 269 265 258 248 248 249 244 240 238 235 234 237 238 235 233 231 231 232 232 233 233 231 231 231 230 227 228 230 230 229 229 230 230 229 228 228 227 224 220 220 222 224 226 223 218
350 350 350 349 349 349 349 349 348 347 346 346 344 339 332 330 333 331 328 332 334 334 337 339 341 338 337 342 342 337 334 330 326 325 327 329 331 332 330 318 303 289 277 269 264 257 247 244 248 249 245 242 238 236 237 239 237 234 231 230 231 232 233 233 233 233 232 230 227 227 229 230 229 227 227 228 228 227 227 227 225 222 220 220 223 224 222 217
350 350 350 350 350 350 350 350 349 348 347 347 345 340 334 332 334 333 333 334 334 334 338 341 343 339 334 336 344 346 343 338 331 327 328 326 324 326 325 319 310 298 284 274 266 257 248 243 244 248 248 245 242 239 238 238 237 233 231 231 230 230 231 232 233 234 233 231 227 225 228 231 230 227 226 227 227 226 226 226 224 223 221 221 223 224 221 217
350 351 351 350 351 351 351 351 350 350 349 349 347 342 337 334 333 334 335 334 332 334 338 341 344 343 334 328 337 349 350 346 338 332 333 332 328 325 324 320 313 306 297 286 274 259 251 245 243 244 246 243 240 239 239 239 238 235 233 232 231 230 231 231 232 233 232 232 228 223 227 232 232 228 225 226 227 226 225 225 224 222 221 222 224 225 222 217
350 351 351 351 351 351 352 352 352 352 351 351 349 345 340 336 334 335 335 332 332 334 336 340 343 344 341 331 331 342 349 350 345 341 339 337 336 331 330 329 318 317 316 300 286 269 255 248 244 243 243 242 239 237 238 238 236 235 235 234 232 231 231 230 231 231 230 231 229 224 226 233 234 229 225 225 227 227 225 225 225 223 221 220 222 224 223 219
351 351 351 351 351 352 352 353 354 353 353 352 350 348 343 337 335 335 333 330 331 333 335 339 342 343 347 346 338 338 345 349 346 345 344 340 339 334 335 338 328 327 332 316 295 273 257 250 246 243 242 242 240 237 237 236 233 233 234 234 234 233 232 231 230 230 229 230 230 227 226 232 236 232 226 224 226 227 226 225 225 224 222 219 220 223 223 222
351 351 351 351 351 351 352 354 355 354 353 352 352 350 345 340 337 333 332 331 330 331 332 337 340 343 347 348 345 343 345 348 343 341 343 341 340 336 336 340 333 332 339 333 312 276 255 251 248 245 242 241 241 239 237 235 234 233 234 234 233 232 232 231 230 230 230 231 231 229 227 231 235 234 229 224 224 225 226 225 224 224 223 219 219 221 222 223
351 351 350 350 351 351 352 354 355 354 353 352 353 352 348 343 337 332 333 333 329 328 330 334 339 344 346 345 347 348 349 351 346 340 341 341 341 338 337 339 337 334 337 339 332 300 262 248 247 247 243 241 242 240 237 237 237 236 236 236 235 233 233 233 232 231 231 230 228 227 228 230 233 235 232 225 222 224 225 225 224 224 224 221 219 219 220 222
352 351 350 350 350 350 352 354 356 355 353 352 353 353 350 345 338 333 333 335 333 327 326 331 337 343 344 344 347 349 350 353 352 344 341 341 342 341 341 342 341 338 337 338 336 323 287 243 242 247 244 241 241 240 238 237 237 238 238 238 237 235 234 234 233 233 233 230 227 224 226 229 231 234 235 229 223 224 224 225 224 223 223 222 220 219 218 219
352 351 350 349 349 350 352 354 355 355 353 352 353 354 352 347 341 336 333 335 337 330 325 329 335 341 343 343 346 349 349 351 356 353 345 343 343 342 345 347 344 342 338 336 334 328 308 248 240 246 246 243 238 235 234 234 236 239 240 238 236 235 236 236 234 233 232 230 226 222 223 229 230 232 235 232 225 223 223 224 224 224 223 222 222 221 219 218
352 351 350 349 349 350 351 352 354 355 354 353 353 353 353 349 344 339 335 334 337 335 332 331 332 337 341 342 344 348 349 349 354 357 351 348 345 342 348 351 349 348 342 335 331 326 314 276 254 252 249 246 239 233 231 232 235 239 241 240 237 235 237 236 234 232 232 231 227 222 223 228 231 232 234 234 228 223 221 222 224 224 223 222 222 222 221 220
351 350 349 349 350 351 351 351 353 354 355 355 354 353 353 351 347 342 336 333 335 337 340 340 337 337 337 339 342 347 349 349 351 354 353 353 348 344 349 349 349 351 345 339 334 323 316 298 276 268 260 251 242 235 232 231 231 235 239 240 238 235 235 235 234 232 232 234 230 223 222 225 229 231 232 234 232 226 222 222 222 223 223 222 221 221 222 221
350 350 350 350 350 351 351 350 351 354 355 356 356 354 354 353 350 345 338 333 333 336 342 347 345 341 337 337 340 347 349 350 352 351 349 352 352 350 348 344 348 350 344 346 346 330 318 304 291 283 271 260 246 236 232 230 229 230 232 232 232 232 231 232 233 231 231 234 231 225 222 223 226 229 229 232 234 230 226 224 223 223 224 223 221 220 221 221
350 350 350 349 350 351 350 349 351 355 356 356 357 355 354 355 352 348 342 336 333 334 341 348 348 345 341 336 339 350 352 351 355 350 342 347 354 352 348 343 348 350 346 352 355 341 325 312 302 295 277 265 254 237 229 226 225 224 223 223 227 229 227 226 229 230 230 233 232 226 223 222 223 226 227 230 233 231 227 226 225 224 225 225 223 221 220 221
350 350 349 348 350 351 351 349 351 354 355 355 357 357 356 356 354 350 346 341 336 334 339 345 347 346 342 336 337 349 357 352 353 348 340 343 354 353 351 350 349 349 349 354 358 349 334 321 312 306 291 273 263 245 229 223 220 220 222 224 227 227 223 222 225 226 226 230 231 228 226 224 222 224 228 229 232 231 227 225 223 224 225 225 225 222 221 220
350 349 347 348 349 350 351 351 351 353 354 354 356 357 357 357 356 352 348 345 338 334 336 340 343 343 342 340 337 344 356 353 347 346 341 343 357 358 353 350 347 348 352 354 359 357 345 333 324 318 309 285 265 246 227 222 220 219 222 227 228 222 218 219 223 223 222 226 229 229 228 225 220 223 228 230 230 229 225 221 219 220 222 223 223 222 220 219
349 348 347 347 346 347 350 352 351 352 353 354 354 356 357 358 358 355 350 347 340 333 335 336 337 338 342 344 339 341 351 352 346 346 343 344 357 1 356 351 344 347 354 358 0 358 349 344 343 336 329 305 265 244 226 220 221 220 219 221 221 217 214 216 222 223 220 221 224 229 230 225 218 222 228 229 227 224 219 216 215 217 219 219 219 220 220 218
348 348 348 346 344 345 349 352 352 353 354 354 354 355 356 356 359 357 353 350 343 334 334 333 333 338 344 346 344 343 347 350 349 346 343 346 358 5 4 355 342 343 353 3 9 1 351 351 351 349 348 335 278 238 224 217 218 220 217 213 213 214 214 216 220 221 218 217 218 225 229 222 214 220 226 227 227 223 218 214 213 215 217 218 217 217 218 217
348 349 347 345 343 344 348 350 352 354 356 356 354 355 356 355 357 358 355 353 346 336 333 333 333 339 347 348 347 346 345 344 348 349 346 351 4 11 11 357 341 345 354 6 21 18 3 354 347 349 352 341 297 227 222 217 213 210 202 201 205 210 212 213 216 217 215 214 215 221 227 220 214 221 224 225 226 221 215 211 210 213 215 216 215 214 216 217
348 349 347 344 343 344 346 347 348 352 355 357 356 355 356 355 355 357 357 356 349 338 334 336 336 340 348 351 348 346 342 338 344 353 351 355 8 12 11 3 353 360 4 7 20 27 16 1 344 350 2 356 335 202 206 199 194 190 188 194 202 207 211 212 214 216 215 214 215 222 225 215 211 218 219 221 223 218 211 207 207 210 212 213 213 212 214 217
348 348 346 345 344 343 343 344 345 348 352 356 357 355 355 355 355 355 355 357 354 343 337 338 338 340 347 353 348 345 343 337 343 357 355 352 2 7 8 7 2 10 14 11 17 23 21 15 357 355 17 23 66 144 153 167 183 187 188 195 206 210 211 212 213 214 216 217 218 223 222 208 202 205 207 213 218 215 210 207 206 209 210 210 210 210 212 216
346 347 347 346 343 342 342 343 344 346 349 353 356 356 355 354 355 356 354 356 356 348 340 338 339 341 344 350 351 349 349 343 344 357 359 350 353 1 7 9 5 13 20 15 16 20 25 26 12 353 26 45 94 145 144 153 180 195 199 213 227 217 212 211 212 212 215 223 222 221 221 213 202 200 200 204 210 211 210 208 208 209 207 206 207 207 209 214
345 347 348 346 343 341 341 342 343 343 346 351 354 355 355 353 354 356 356 356 356 351 345 340 338 339 342 347 351 351 354 354 350 355 358 354 353 359 9 14 11 19 25 17 12 14 24 30 19 10 26 41 103 168 177 185 200 208 215 232 239 213 209 211 213 213 220 229 229 225 228 224 211 203 202 203 207 209 208 208 207 205 203 202 204 204 206 210
344 345 347 346 343 341 341 340 341 342 344 348 351 353 355 354 353 354 356 357 356 353 350 343 337 337 340 344 348 351 354 358 360 358 356 354 354 359 11 20 21 27 25 13 8 13 16 9 9 20 27 22 76 165 181 196 214 220 215 225 217 197 202 209 214 219 227 234 236 234 234 229 217 208 205 206 209 209 208 207 203 199 198 199 200 201 203 206
341 343 345 345 343 340 340 339 340 341 343 346 349 351 354 355 353 353 354 357 358 356 352 344 338 338 339 341 345 351 355 355 356 358 358 357 355 360 12 23 29 35 31 13 5 12 19 11 0 11 8 2 14 181 193 195 207 214 208 216 217 207 207 212 218 225 232 238 242 239 231 222 215 212 207 206 209 210 209 205 199 194 195 197 197 199 203 204
339 341 342 344 343 340 339 339 339 341 341 343 347 350 351 353 354 352 352 354 358 358 354 347 341 339 340 341 342 348 354 352 348 351 357 1 4 5 10 19 30 41 47 32 6 8 19 23 17 10 355 353 359 317 210 198 199 206 208 216 222 219 218 221 226 232 238 243 244 238 223 210 211 215 208 203 208 212 210 203 197 195 197 197 196 201 207 203
338 339 339 341 343 341 338 338 338 339 340 342 345 347 349 351 352 352 352 353 355 357 357 352 345 340 341 341 340 344 352 351 346 347 357 4 10 11 10 16 27 35 43 43 24 15 23 23 15 12 8 0 3 14 178 194 201 210 215 219 226 228 227 228 231 235 241 243 241 236 222 212 219 224 208 201 206 211 206 198 196 197 199 197 196 202 209 204
Height
5770 5769 5767 5765 5764 5762 5760 5759 5757 5755 5754 5752 5751 5749 5747 5746 5745 5743 5742 5741 5740 5739 5739 5739 5739 5738 5738 5737 5738 5738 5738 5738 5739 5740 5741 5742 5743 5745 5747 5749 5751 5753 5755 5757 5759 5761 5763 5766 5768 5771 5774 5777 5779 5782 5784 5785 5787 5787 5788 5789 5789 5792 5796 5801 5806 5811 5816 5822 5829 5831 5832 5833 5835 5836 5835 5834 5836 5839 5840 5843 5848 5852 5854 5854 5854 5855 5855 5856
5769 5768 5766 5764 5762 5760 5759 5757 5755 5753 5752 5750 5748 5746 5744 5742 5741 5739 5738 5737 5736 5734 5734 5733 5733 5733 5733 5732 5732 5732 5732 5732 5732 5733 5734 5736 5736 5738 5740 5742 5744 5746 5748 5750 5752 5755 5757 5759 5762 5764 5767 5770 5773 5776 5778 5779 5781 5781 5783 5784 5785 5790 5794 5799 5804 5808 5812 5817 5823 5826 5827 5828 5829 5832 5832 5830 5833 5835 5835 5838 5844 5848 5850 5851 5853 5854 5854 5855
5769 5767 5765 5763 5761 5759 5757 5755 5753 5751 5749 5747 5745 5743 5741 5739 5737 5736 5734 5733 5731 5730 5729 5728 5728 5727 5727 5727 5727 5727 5726 5726 5726 5726 5727 5729 5730 5731 5733 5735 5738 5739 5741 5743 5746 5749 5750 5753 5755 5758 5760 5763 5767 5769 5771 5774 5775 5776 5778 5778 5782 5788 5791 5795 5800 5803 5807 5812 5818 5821 5821 5822 5823 5826 5827 5826 5828 5831 5831 5833 5840 5845 5847 5849 5850 5851 5852 5853
5768 5766 5764 5761 5759 5757 5755 5753 5751 5749 5747 5745 5742 5740 5738 5736 5734 5732 5730 5729 5727 5726 5725 5724 5723 5723 5721 5721 5721 5721 5721 5720 5720 5720 5721 5723 5724 5726 5727 5729 5731 5732 5734 5737 5739 5742 5744 5746 5748 5751 5753 5756 5759 5762 5765 5768 5769 5770 5771 5774 5781 5785 5785 5789 5794 5798 5803 5806 5812 5816 5816 5817 5819 5820 5822 5822 5822 5826 5827 5830 5837 5842 5844 5846 5847 5848 5850 5851
5767 5765 5762 5760 5758 5755 5753 5751 5749 5746 5744 5742 5739 5737 5735 5733 5731 5729 5727 5725 5724 5722 5721 5720 5719 5718 5717 5716 5716 5715 5715 5714 5714 5715 5716 5718 5718 5719 5720 5721 5723 5725 5727 5730 5732 5735 5737 5740 5742 5745 5747 5749 5752 5754 5758 5762 5762 5763 5766 5773 5779 5779 5779 5784 5789 5794 5798 5801 5804 5808 5811 5813 5814 5814 5817 5819 5818 5822 5825 5826 5834 5838 5839 5842 5843 5845 5848 5849
5766 5763 5761 5758 5756 5753 5751 5748 5746 5743 5741 5738 5735 5733 5731 5728 5726 5724 5723 5721 5720 5718 5717 5716 5714 5713 5712 5712 5711 5710 5709 5708 5708 5710 5711 5711 5711 5712 5713 5715 5716 5718 5720 5722 5724 5727 5730 5732 5735 5737 5740 5743 5745 5748 5752 5755 5756 5758 5763 5769 5771 5771 5773 5778 5783 5787 5791 5793 5797 5801 5806 5808 5807 5808 5813 5815 5813 5820 5824 5823 5830 5835 5835 5838 5841 5842 5844 5846
5764 5762 5759 5756 5753 5751 5748 5745 5743 5740 5737 5734 5732 5729 5727 5724 5722 5719 5718 5717 5716 5714 5713 5711 5710 5708 5707 5706 5706 5705 5704 5702 5701 5704 5705 5705 5705 5706 5707 5708 5709 5711 5712 5714 5716 5719 5721 5724 5727 5729 5733 5736 5738 5742 5745 5747 5750 5753 5758 5762 5763 5764 5767 5772 5775 5780 5784 5786 5790 5796 5801 5802 5802 5805 5809 5811 5811 5816 5822 5820 5825 5831 5831 5834 5836 5838 5840 5843
5763 5760 5757 5754 5751 5748 5745 5742 5739 5737 5734 5731 5728 5725 5723 5720 5717 5715 5713 5712 5711 5710 5708 5707 5706 5704 5702 5701 5700 5699 5699 5697 5696 5698 5699 5699 5699 5699 5700 5701 5702 5703 5704 5706 5708 5710 5712 5715 5719 5722 5726 5728 5731 5735 5737 5741 5745 5747 5752 5754 5755 5756 5760 5765 5768 5772 5777 5781 5785 5789 5793 5797 5800 5802 5804 5807 5808 5812 5817 5817 5819 5825 5827 5830 5832 5834 5837 5841
5761 5758 5755 5752 5749 5746 5743 5740 5737 5734 5731 5727 5724 5721 5719 5716 5713 5711 5709 5707 5706 5704 5703 5702 5701 5699 5698 5696 5695 5694 5693 5692 5692 5692 5693 5693 5692 5692 5692 5694 5694 5695 5697 5698 5700 5702 5704 5707 5711 5714 5718 5721 5724 5728 5731 5735 5739 5741 5744 5745 5747 5750 5755 5759 5762 5766 5771 5775 5779 5782 5786 5792 5797 5797 5798 5802 5804 5807 5813 5812 5814 5819 5822 5827 5829 5830 5835 5838
5759 5756 5753 5750 5747 5744 5741 5737 5734 5731 5727 5724 5721 5718 5715 5712 5709 5707 5705 5703 5701 5700 5698 5697 5696 5694 5693 5692 5691 5690 5689 5688 5687 5687 5686 5686 5686 5685 5686 5687 5688 5688 5689 5691 5692 5694 5696 5699 5703 5707 5710 5713 5717 5721 5724 5728 5732 5735 5736 5737 5742 5747 5750 5753 5756 5761 5765 5769 5773 5776 5780 5787 5792 5792 5794 5799 5800 5803 5808 5809 5810 5812 5817 5823 5826 5828 5832 5835
5758 5755 5752 5748 5745 5742 5738 5735 5731 5728 5725 5721 5718 5715 5712 5709 5706 5704 5701 5699 5697 5695 5694 5692 5691 5689 5688 5687 5686 5686 5685 5684 5683 5681 5681 5681 5681 5681 5681 5681 5682 5681 5682 5683 5684 5686 5689 5692 5696 5699 5702 5705 5709 5714 5717 5720 5725 5728 5728 5731 5738 5741 5743 5746 5749 5755 5759 5763 5768 5772 5775 5780 5784 5785 5791 5797 5797 5798 5803 5806 5807 5807 5810 5816 5822 5825 5828 5831
5757 5753 5750 5746 5743 5739 5736 5732 5729 5725 5722 5719 5716 5712 5709 5706 5703 5701 5698 5695 5693 5691 5689 5688 5686 5685 5682 5681 5680 5680 5679 5678 5677 5676 5676 5676 5675 5675 5675 5675 5675 5675 5676 5677 5677 5680 5682 5685 5689 5692 5695 5699 5704 5707 5708 5713 5717 5720 5722 5725 5730 5734 5736 5740 5745 5749 5753 5757 5763 5767 5768 5771 5775 5781 5789 5792 5792 5794 5797 5801 5803 5803 5805 5809 5816 5820 5823 5828
5755 5751 5748 5744 5741 5737 5733 5729 5726 5723 5719 5715 5713 5709 5706 5703 5700 5697 5695 5692 5690 5688 5686 5684 5683 5681 5678 5677 5675 5674 5673 5672 5671 5671 5670 5670 5669 5668 5668 5668 5668 5669 5670 5671 5672 5674 5676 5679 5682 5685 5688 5693 5697 5698 5701 5706 5709 5713 5716 5718 5723 5725 5729 5736 5741 5743 5747 5752 5758 5760 5759 5762 5770 5778 5785 5788 5789 5791 5792 5797 5800 5801 5802 5804 5809 5813 5818 5823
5753 5749 5746 5742 5738 5734 5730 5727 5723 5720 5716 5712 5710 5707 5703 5700 5697 5694 5692 5689 5687 5685 5684 5682 5680 5678 5675 5673 5671 5669 5667 5665 5664 5664 5664 5663 5662 5661 5661 5662 5663 5663 5664 5666 5665 5668 5671 5674 5676 5679 5682 5686 5689 5691 5695 5699 5701 5706 5709 5712 5716 5718 5723 5732 5735 5738 5741 5746 5752 5752 5750 5755 5765 5774 5780 5784 5787 5787 5788 5793 5796 5798 5800 5801 5805 5808 5812 5818
5751 5747 5743 5739 5736 5732 5728 5724 5720 5717 5713 5709 5706 5704 5700 5697 5695 5692 5689 5687 5685 5684 5682 5680 5678 5675 5672 5669 5667 5664 5661 5659 5657 5656 5655 5655 5656 5655 5655 5656 5657 5657 5658 5659 5660 5662 5665 5669 5671 5673 5676 5679 5682 5685 5688 5691 5694 5698 5701 5705 5710 5712 5719 5726 5728 5732 5736 5740 5744 5743 5743 5750 5759 5767 5773 5778 5782 5783 5784 5788 5792 5795 5797 5799 5801 5804 5807 5812
5749 5745 5741 5737 5733 5729 5725 5721 5718 5714 5710 5707 5703 5701 5698 5695 5692 5689 5687 5686 5684 5682 5680 5678 5675 5672 5669 5666 5663 5660 5657 5653 5650 5648 5646 5646 5647 5648 5648 5648 5650 5651 5652 5653 5654 5656 5659 5663 5665 5667 5670 5673 5676 5679 5682 5684 5687 5691 5694 5700 5704 5706 5712 5717 5720 5725 5728 5732 5734 5734 5737 5744 5752 5760 5766 5771 5776 5779 5780 5783 5787 5790 5793 5796 5798 5800 5803 5807
5747 5743 5739 5735 5731 5727 5723 5719 5715 5711 5708 5704 5701 5698 5695 5692 5690 5687 5686 5684 5682 5680 5678 5675 5673 5670 5668 5664 5661 5657 5653 5648 5644 5641 5639 5638 5639 5639 5640 5641 5642 5643 5645 5647 5648 5650 5652 5655 5658 5662 5664 5667 5670 5672 5675 5677 5682 5686 5688 5692 5696 5698 5703 5707 5711 5717 5720 5723 5726 5728 5732 5739 5746 5753 5759 5765 5770 5773 5775 5778 5783 5786 5789 5792 5795 5797 5799 5803
5746 5741 5737 5733 5729 5725 5721 5717 5713 5709 5705 5702 5699 5696 5693 5690 5688 5685 5683 5681 5680 5678 5675 5673 5671 5668 5665 5662 5658 5654 5649 5644 5639 5637 5635 5634 5634 5633 5634 5635 5635 5637 5639 5640 5642 5643 5645 5648 5652 5655 5659 5662 5665 5667 5669 5673 5677 5678 5679 5683 5686 5690 5694 5698 5704 5711 5714 5715 5719 5723 5727 5734 5741 5745 5751 5758 5764 5768 5771 5775 5778 5782 5785 5788 5791 5793 5796 5800
5744 5740 5735 5731 5727 5723 5719 5715 5711 5707 5703 5699 5696 5693 5691 5689 5686 5684 5681 5679 5677 5676 5673 5671 5669 5666 5663 5659 5655 5651 5646 5641 5637 5634 5633 5632 5631 5630 5629 5629 5630 5631 5633 5634 5635 5636 5639 5641 5645 5650 5656 5660 5661 5662 5664 5666 5668 5669 5672 5676 5679 5683 5688 5691 5697 5705 5707 5707 5711 5717 5723 5729 5735 5738 5743 5751 5757 5761 5766 5770 5774 5777 5780 5783 5786 5790 5793 5796
5742 5738 5733 5729 5725 5721 5717 5713 5709 5706 5702 5697 5693 5690 5687 5685 5683 5681 5680 5678 5676 5674 5671 5669 5666 5664 5660 5657 5652 5648 5644 5639 5635 5632 5630 5629 5627 5626 5625 5625 5625 5626 5627 5628 5629 5630 5633 5635 5640 5647 5652 5652 5651 5652 5655 5657 5659 5662 5666 5669 5671 5676 5681 5685 5690 5696 5699 5700 5704 5711 5718 5723 5727 5732 5737 5743 5750 5755 5759 5765 5768 5772 5776 5778 5782 5786 5790 5793
5741 5736 5732 5727 5723 5719 5715 5711 5707 5704 5700 5696 5693 5689 5686 5683 5681 5679 5677 5676 5674 5671 5669 5666 5664 5661 5658 5654 5650 5646 5642 5638 5633 5630 5628 5626 5624 5623 5622 5621 5621 5620 5621 5622 5623 5626 5628 5632 5638 5642 5641 5641 5641 5645 5648 5650 5653 5657 5660 5662 5665 5669 5675 5680 5683 5689 5692 5693 5698 5705 5711 5716 5719 5723 5730 5736 5742 5748 5754 5759 5763 5767 5771 5774 5777 5783 5788 5791
5739 5735 5730 5725 5721 5717 5713 5709 5705 5702 5698 5695 5691 5688 5686 5683 5680 5678 5675 5673 5671 5669 5666 5664 5661 5658 5655 5651 5648 5644 5641 5637 5632 5629 5626 5623 5621 5620 5620 5619 5617 5617 5616 5617 5618 5620 5623 5630 5634 5632 5630 5633 5636 5640 5642 5643 5647 5651 5654 5657 5660 5665 5670 5673 5677 5682 5684 5684 5691 5699 5702 5708 5711 5715 5723 5729 5734 5741 5749 5754 5759 5763 5767 5770 5774 5779 5785 5788
5737 5733 5728 5724 5719 5715 5711 5707 5703 5700 5696 5693 5689 5686 5683 5681 5679 5676 5674 5672 5669 5667 5664 5661 5659 5656 5653 5649 5645 5642 5639 5636 5632 5628 5625 5622 5620 5618 5617 5616 5615 5614 5613 5613 5614 5615 5620 5626 5626 5622 5624 5628 5631 5634 5635 5637 5641 5645 5649 5652 5656 5661 5664 5668 5672 5674 5674 5676 5685 5692 5694 5699 5704 5707 5715 5722 5728 5735 5742 5748 5754 5758 5762 5766 5771 5776 5782 5786
5736 5731 5727 5722 5717 5713 5709 5705 5702 5698 5695 5691 5687 5684 5681 5679 5677 5675 5672 5670 5667 5665 5662 5659 5657 5654 5650 5647 5643 5640 5637 5634 5631 5628 5625 5621 5619 5617 5615 5614 5613 5613 5611 5611 5611 5612 5617 5619 5617 5617 5621 5623 5626 5628 5630 5632 5636 5640 5644 5648 5654 5658 5659 5663 5667 5667 5667 5671 5679 5686 5686 5689 5696 5701 5707 5716 5723 5729 5735 5741 5746 5751 5756 5762 5766 5771 5777 5782
5735 5730 5725 5721 5716 5712 5708 5704 5700 5697 5693 5690 5686 5682 5679 5677 5674 5672 5670 5668 5665 5663 5660 5657 5654 5651 5648 5645 5641 5638 5635 5632 5629 5627 5624 5621 5619 5616 5614 5613 5611 5610 5609 5609 5608 5610 5613 5613 5612 5614 5616 5618 5620 5623 5625 5627 5631 5635 5640 5646 5652 5654 5654 5657 5661 5661 5661 5665 5675 5680 5678 5681 5689 5695 5701 5710 5717 5722 5729 5735 5740 5746 5751 5756 5760 5765 5771 5777
5733 5729 5724 5719 5715 5710 5706 5702 5699 5695 5691 5688 5684 5680 5677 5675 5672 5670 5668 5666 5663 5661 5658 5655 5652 5649 5645 5643 5639 5636 5633 5631 5627 5625 5622 5620 5618 5615 5613 5611 5609 5608 5607 5606 5606 5607 5610 5609 5609 5610 5610 5612 5615 5619 5621 5623 5626 5630 5637 5643 5646 5647 5648 5651 5655 5655 5655 5662 5671 5672 5669 5673 5680 5686 5694 5702 5709 5715 5722 5728 5734 5741 5746 5750 5755 5760 5766 5772
5732 5727 5723 5718 5713 5709 5705 5701 5698 5694 5690 5686 5682 5679 5676 5673 5671 5668 5666 5664 5661 5659 5656 5654 5650 5646 5643 5641 5638 5634 5632 5629 5626 5623 5620 5618 5616 5613 5611 5609 5607 5605 5604 5603 5603 5604 5605 5605 5605 5605 5606 5609 5612 5617 5618 5617 5619 5625 5633 5637 5638 5639 5642 5646 5648 5648 5652 5660 5664 5663 5663 5665 5668 5678 5688 5694 5701 5709 5715 5722 5729 5736 5742 5746 5750 5755 5761 5768
5730 5726 5722 5717 5713 5708 5704 5700 5696 5693 5689 5685 5681 5677 5674 5671 5669 5666 5664 5661 5659 5657 5654 5651 5648 5644 5641 5638 5636 5633 5630 5627 5624 5621 5619 5616 5614 5611 5609 5607 5604 5603 5601 5599 5599 5601 5601 5601 5601 5602 5604 5607 5610 5612 5610 5609 5613 5622 5627 5627 5629 5632 5635 5639 5641 5643 5649 5652 5653 5657 5660 5658 5661 5674 5684 5687 5693 5701 5708 5716 5723 5731 5738 5743 5747 5751 5758 5764
5729 5725 5720 5716 5712 5707 5703 5699 5695 5691 5688 5684 5680 5676 5673 5670 5667 5665 5662 5660 5658 5655 5652 5649 5646 5642 5639 5635 5633 5631 5628 5625 5623 5620 5617 5615 5613 5610 5608 5606 5603 5600 5599 5596 5596 5597 5597 5597 5598 5598 5601 5604 5605 5604 5604 5607 5613 5619 5620 5620 5624 5627 5629 5633 5634 5638 5643 5641 5645 5656 5658 5654 5656 5668 5678 5680 5686 5696 5705 5713 5719 5727 5734 5740 5744 5748 5753 5759
5728 5723 5719 5715 5711 5707 5703 5699 5694 5690 5686 5682 5679 5675 5671 5668 5666 5663 5661 5658 5656 5653 5650 5647 5643 5640 5638 5634 5631 5629 5627 5624 5622 5619 5617 5614 5611 5609 5607 5605 5601 5599 5596 5593 5592 5593 5593 5593 5594 5595 5598 5599 5600 5600 5601 5605 5610 5613 5613 5615 5619 5621 5624 5627 5627 5633 5634 5630 5641 5654 5656 5652 5650 5658 5670 5675 5683 5695 5703 5709 5716 5723 5729 5735 5739 5743 5747 5753
5726 5722 5718 5714 5710 5706 5702 5698 5694 5689 5685 5681 5678 5674 5670 5667 5664 5661 5659 5657 5655 5652 5649 5646 5642 5639 5636 5634 5631 5628 5625 5623 5620 5618 5615 5613 5610 5607 5605 5603 5600 5597 5594 5591 5589 5588 5588 5589 5590 5592 5594 5595 5595 5597 5599 5602 5606 5607 5608 5611 5614 5616 5619 5620 5621 5624 5622 5624 5640 5652 5654 5649 5642 5649 5664 5673 5682 5691 5697 5704 5711 5717 5724 5730 5734 5738 5743 5748
5725 5721 5717 5713 5709 5705 5702 5698 5694 5689 5685 5681 5677 5673 5669 5665 5662 5659 5658 5655 5653 5650 5648 5645 5642 5639 5635 5633 5631 5627 5624 5621 5619 5616 5614 5611 5608 5605 5603 5601 5598 5595 5592 5589 5586 5583 5583 5585 5587 5588 5590 5591 5592 5594 5597 5599 5602 5603 5604 5607 5609 5611 5613 5613 5614 5616 5615 5624 5640 5649 5649 5642 5637 5645 5659 5668 5677 5684 5689 5698 5705 5711 5717 5724 5729 5734 5738 5742
5724 5720 5716 5712 5708 5705 5701 5697 5693 5689 5684 5680 5676 5672 5668 5664 5661 5658 5656 5654 5651 5648 5646 5643 5641 5638 5635 5632 5630 5626 5623 5620 5617 5615 5612 5610 5607 5604 5602 5599 5597 5593 5590 5588 5584 5581 5581 5582 5583 5584 5586 5588 5589 5592 5595 5597 5599 5600 5601 5603 5604 5606 5607 5607 5610 5612 5614 5624 5636 5643 5641 5634 5636 5643 5650 5662 5674 5679 5685 5692 5699 5705 5711 5718 5723 5727 5732 5736
5724 5719 5715 5711 5707 5704 5700 5696 5692 5688 5684 5679 5675 5671 5666 5663 5660 5657 5655 5652 5650 5647 5644 5642 5640 5637 5634 5631 5628 5625 5622 5619 5616 5613 5611 5608 5606 5603 5600 5598 5595 5592 5588 5586 5583 5580 5579 5580 5580 5580 5582 5584 5586 5590 5593 5594 5594 5594 5596 5597 5597 5600 5602 5603 5607 5609 5613 5621 5630 5636 5631 5626 5635 5642 5646 5661 5673 5676 5681 5686 5692 5699 5704 5711 5717 5721 5725 5730
5723 5718 5714 5710 5706 5702 5699 5695 5692 5688 5683 5678 5674 5670 5665 5662 5659 5657 5654 5651 5649 5646 5643 5641 5639 5636 5634 5630 5627 5624 5621 5618 5615 5612 5609 5607 5604 5601 5599 5597 5594 5590 5587 5585 5583 5580 5578 5578 5578 5577 5579 5581 5582 5586 5587 5587 5589 5591 5592 5591 5592 5596 5598 5600 5603 5606 5611 5616 5621 5625 5622 5623 5635 5642 5645 5657 5666 5671 5676 5680 5686 5692 5698 5705 5711 5716 5721 5725
5722 5718 5714 5710 5705 5701 5697 5694 5691 5687 5683 5678 5673 5669 5665 5661 5658 5655 5653 5650 5648 5645 5642 5640 5638 5635 5633 5629 5626 5622 5619 5617 5614 5611 5608 5606 5603 5600 5597 5595 5592 5589 5586 5584 5582 5580 5578 5577 5575 5575 5576 5577 5578 5580 5581 5583 5586 5588 5588 5588 5592 5596 5596 5597 5600 5603 5607 5607 5611 5618 5620 5625 5635 5639 5643 5652 5659 5665 5670 5675 5680 5685 5693 5700 5705 5711 5717 5722
5721 5717 5713 5709 5705 5700 5696 5693 5690 5686 5682 5678 5673 5669 5665 5661 5657 5654 5651 5649 5646 5643 5641 5639 5636 5633 5630 5628 5625 5621 5618 5615 5612 5610 5607 5604 5601 5599 5597 5594 5591 5588 5585 5583 5581 5578 5577 5576 5573 5572 5572 5573 5574 5575 5577 5580 5583 5584 5585 5588 5592 5593 5592 5594 5597 5600 5602 5602 5607 5615 5620 5625 5630 5634 5642 5648 5652 5660 5666 5670 5675 5680 5687 5694 5700 5707 5713 5718
5720 5716 5712 5708 5704 5700 5695 5692 5688 5685 5681 5677 5673 5668 5664 5660 5656 5653 5650 5647 5645 5642 5639 5637 5635 5632 5628 5626 5624 5621 5617 5613 5611 5608 5606 5604 5601 5598 5596 5593 5591 5587 5584 5582 5580 5577 5575 5574 5572 5570 5568 5568 5569 5571 5573 5576 5579 5582 5584 5586 5587 5587 5589 5592 5594 5597 5600 5601 5605 5612 5617 5621 5624 5630 5639 5644 5648 5657 5665 5668 5673 5678 5684 5689 5696 5703 5709 5713
5719 5715 5711 5707 5704 5700 5695 5691 5687 5684 5680 5676 5672 5668 5663 5659 5655 5652 5649 5646 5644 5641 5638 5635 5633 5630 5627 5624 5622 5621 5617 5613 5610 5608 5605 5603 5600 5597 5595 5592 5589 5586 5584 5581 5579 5575 5573 5572 5569 5567 5566 5565 5566 5568 5571 5573 5576 5578 5579 5580 5582 5584 5587 5589 5591 5595 5599 5600 5604 5609 5613 5616 5621 5629 5637 5641 5646 5654 5661 5666 5671 5676 5680 5685 5691 5698 5704 5708
5718 5714 5710 5707 5703 5700 5696 5691 5686 5683 5679 5676 5672 5668 5664 5659 5655 5651 5648 5645 5642 5640 5637 5635 5631 5628 5626 5624 5621 5619 5617 5613 5610 5608 5604 5601 5599 5596 5594 5591 5588 5586 5583 5581 5578 5575 5571 5570 5567 5564 5563 5563 5563 5566 5569 5571 5572 5574 5576 5577 5579 5582 5585 5588 5590 5593 5597 5600 5603 5607 5610 5613 5622 5629 5635 5639 5644 5651 5657 5662 5667 5672 5676 5680 5685 5691 5697 5703
5716 5713 5710 5706 5703 5700 5696 5691 5686 5682 5679 5675 5672 5668 5664 5659 5655 5650 5647 5644 5641 5639 5636 5634 5631 5628 5625 5623 5620 5617 5616 5613 5610 5607 5603 5600 5599 5596 5593 5590 5588 5585 5583 5581 5578 5575 5571 5569 5567 5563 5561 5561 5561 5563 5566 5568 5569 5571 5574 5576 5578 5581 5584 5586 5589 5592 5596 5599 5602 5605 5607 5612 5623 5630 5633 5637 5642 5647 5653 5656 5660 5664 5668 5673 5678 5684 5690 5696
5716 5713 5709 5705 5702 5699 5696 5692 5687 5683 5679 5674 5671 5667 5663 5659 5655 5651 5647 5644 5640 5637 5635 5633 5630 5628 5625 5623 5619 5616 5614 5612 5609 5606 5603 5600 5598 5596 5593 5590 5588 5586 5584 5581 5578 5575 5572 5569 5567 5563 5560 5560 5560 5561 5563 5565 5567 5569 5572 5575 5577 5580 5582 5585 5588 5592 5595 5597 5601 5604 5605 5613 5624 5629 5630 5634 5638 5642 5646 5648 5651 5655 5659 5665 5672 5678 5684 5690
5716 5712 5708 5705 5701 5698 5695 5692 5687 5683 5679 5674 5670 5666 5663 5659 5655 5651 5647 5644 5640 5637 5634 5632 5630 5628 5625 5622 5619 5615 5612 5611 5609 5606 5603 5600 5598 5596 5593 5590 5588 5586 5585 5582 5578 5576 5573 5570 5567 5564 5561 5560 5560 5560 5562 5563 5565 5568 5571 5573 5576 5579 5583 5586 5589 5592 5593 5596 5601 5603 5605 5614 5623 5626 5627 5631 5635 5638 5641 5643 5647 5652 5656 5662 5668 5674 5680 5685
5715 5712 5708 5704 5701 5697 5694 5691 5687 5683 5679 5674 5669 5665 5662 5658 5655 5651 5647 5643 5640 5636 5634 5632 5629 5627 5625 5622 5618 5615 5612 5609 5608 5606 5603 5600 5598 5596 5594 5592 5589 5587 5585 5582 5579 5576 5574 5571 5569 5566 5563 5561 5560 5560 5561 5562 5565 5567 5571 5573 5576 5580 5583 5586 5589 5591 5592 5595 5599 5602 5606 5616 5622 5623 5625 5629 5632 5635 5638 5640 5644 5649 5653 5658 5663 5670 5675 5680
5714 5711 5707 5704 5700 5696 5693 5690 5687 5684 5680 5675 5670 5665 5661 5657 5653 5650 5647 5643 5639 5636 5633 5631 5629 5627 5625 5622 5619 5616 5613 5609 5607 5605 5602 5600 5598 5596 5595 5593 5590 5588 5586 5583 5580 5577 5575 5572 5570 5568 5566 5564 5563 5562 5562 5564 5566 5568 5571 5574 5576 5580 5583 5586 5588 5590 5592 5596 5599 5602 5607 5615 5619 5620 5622 5625 5627 5631 5634 5637 5640 5644 5648 5653 5659 5666 5671 5676
5713 5710 5706 5703 5699 5695 5692 5689 5686 5683 5679 5676 5672 5667 5662 5657 5653 5649 5646 5643 5640 5635 5632 5630 5628 5626 5624 5623 5620 5617 5614 5610 5607 5605 5602 5600 5599 5597 5595 5593 5590 5588 5586 5584 5582 5579 5576 5573 5571 5570 5568 5567 5567 5566 5566 5568 5570 5572 5574 5576 5578 5581 5583 5586 5587 5590 5593 5596 5598 5601 5605 5609 5612 5615 5617 5620 5623 5627 5630 5633 5636 5639 5644 5650 5656 5662 5668 5673
5713 5709 5705 5701 5697 5694 5691 5687 5684 5681 5678 5675 5672 5668 5663 5658 5655 5650 5646 5643 5640 5636 5632 5629 5627 5625 5623 5622 5620 5617 5615 5611 5607 5605 5603 5601 5599 5597 5596 5594 5591 5589 5587 5585 5583 5581 5578 5575 5573 5571 5570 5570 5570 5570 5571 5572 5573 5575 5577 5578 5579 5581 5583 5585 5587 5590 5594 5595 5596 5599 5600 5602 5607 5610 5613 5617 5621 5624 5627 5631 5634 5638 5643 5648 5653 5659 5665 5670
5711 5708 5704 5700 5696 5693 5689 5686 5683 5680 5677 5674 5671 5667 5663 5658 5654 5651 5647 5643 5639 5637 5633 5630 5627 5625 5623 5620 5618 5616 5614 5612 5609 5605 5603 5601 5599 5597 5596 5594 5591 5589 5587 5586 5584 5582 5580 5578 5576 5574 5572 5572 5572 5573 5573 5574 5575 5576 5578 5579 5580 5581 5583 5586 5588 5591 5592 5592 5594 5598 5599 5601 5606 5609 5611 5615 5618 5620 5624 5628 5633 5637 5642 5646 5650 5656 5662 5667
5710 5707 5704 5700 5696 5692 5689 5685 5682 5679 5675 5673 5670 5666 5663 5658 5653 5651 5648 5644 5640 5636 5634 5631 5627 5625 5623 5620 5618 5615 5613 5611 5609 5606 5603 5601 5599 5598 5596 5595 5592 5589 5587 5586 5585 5583 5581 5579 5578 5576 5575 5575 5575 5574 5575 5575 5576 5576 5577 5579 5580 5582 5584 5586 5588 5590 5591 5591 5594 5598 5599 5602 5606 5609 5611 5613 5615 5618 5622 5626 5630 5636 5640 5644 5649 5654 5660 5665
5708 5705 5703 5700 5695 5691 5688 5684 5681 5678 5674 5671 5668 5665 5662 5658 5654 5650 5647 5644 5641 5637 5634 5631 5629 5626 5623 5620 5618 5615 5613 5610 5608 5607 5605 5602 5600 5598 5597 5595 5592 5590 5588 5588 5587 5585 5583 5581 5580 5579 5578 5577 5577 5576 5576 5576 5577 5577 5578 5579 5581 5583 5584 5586 5588 5590 5590 5592 5595 5597 5599 5602 5606 5607 5610 5613 5614 5617 5620 5624 5629 5634 5638 5643 5647 5652 5658 5663
5706 5703 5701 5699 5695 5691 5687 5684 5681 5677 5674 5670 5667 5664 5661 5658 5654 5650 5646 5643 5641 5637 5634 5632 5629 5626 5623 5621 5618 5616 5614 5611 5609 5607 5605 5603 5601 5599 5597 5596 5593 5591 5590 5589 5588 5587 5585 5583 5581 5581 5580 5579 5577 5576 5576 5576 5577 5578 5579 5580 5581 5583 5584 5586 5588 5590 5591 5593 5594 5595 5598 5601 5604 5606 5608 5611 5613 5615 5619 5623 5628 5632 5637 5641 5646 5651 5656 5661
5705 5702 5699 5697 5695 5691 5686 5683 5680 5677 5674 5670 5667 5664 5661 5657 5654 5650 5646 5643 5640 5637 5634 5632 5629 5626 5624 5621 5619 5616 5614 5612 5609 5607 5605 5603 5602 5600 5598 5596 5594 5593 5591 5590 5589 5588 5586 5585 5584 5583 5582 5580 5578 5577 5577 5577 5578 5579 5580 5581 5582 5584 5585 5586 5588 5590 5591 5592 5592 5594 5597 5600 5602 5604 5606 5609 5611 5614 5618 5624 5628 5632 5635 5639 5644 5649 5653 5658